HISPASAT 36W-1 (41942 NORAD) Tracking and Keplerian Element Data

This shows tracking and keplerian element data for the satellite.

Feedback or suggestion? Click here.




ElementValue
Catalog41942
NameHISPASAT 36W-1
Epoch Orbit2953
Epoch Day34.74760479
Epoch Year2025
RAAN275.2947
Inclination0.04
Eccentricity9.44E-05
Argument of Perigee35.8181
Mean Anonmoly56.1668
Mean Motion1.0027128
Decay Rate-2.4E-06
L11 41942U 17006A 25034.74760479 -.00000240 00000+0 00000+0 0 9997
L22 41942 0.0400 275.2947 0000944 35.8181 56.1668 1.00271280 29537



Live tracking and technical data element details for HISPASAT 36W-1 (NORAD 41942). HISPASAT 36W-1 can be tracked NOW for your location showing map with azimuth and elevation plus other details from your city location.







IsCatalogInMostPopularTable: catalog: 41942, numindb: 670
Update: records affected: 1



GetName: 41942 HISPASAT 36W-1

Hit Count: updated at: Sat, 17 May 2025 06:01:03 GMT